• In Belarus
  • List of Countries
  • For 7 days
  • Water Temperature
  • Satellite Maps
  • Weather Map
  • Weather Widgets
  • user-avatar
    Login

    Hourly Weather Rozhnyatov

    Today, 11 December, Monday

    Time Temperature Precipitation Wind Pressure Humidity
    00:00 -5°C° 0 mm 6 mps 717 mmHg 69%
    01:00 -5°C° 0 mm 6 mps 717 mmHg 68%
    02:00 -2°C° 0 mm 3 mps 717 mmHg 77%
    03:00 -2°C° 0 mm 4 mps 717 mmHg 77%
    04:00 -2°C° 0 mm 5 mps 717 mmHg 77%
    05:00 -3°C° 0 mm 6 mps 717 mmHg 76%
    06:00 -2°C° 0.1 mm 6 mps 717 mmHg 77%
    07:00 -1°C° 0.1 mm 6 mps 717 mmHg 77%
    08:00 0°C° 0 mm 5 mps 717 mmHg 78%
    09:00 +1°C° 0.2 mm 5 mps 717 mmHg 79%
    10:00 +1°C° 0.2 mm 5 mps 717 mmHg 79%
    11:00 +2°C° 0.2 mm 6 mps 718 mmHg 79%
    12:00 +3°C° 0.1 mm 6 mps 718 mmHg 79%
    13:00 +4°C° 0.1 mm 6 mps 718 mmHg 78%
    14:00 +4°C° 0.1 mm 7 mps 718 mmHg 77%
    15:00 +4°C° 0 mm 6 mps 718 mmHg 78%
    16:00 +4°C° 0 mm 6 mps 718 mmHg 79%
    17:00 +5°C° 0 mm 5 mps 718 mmHg 81%
    18:00 +5°C° 0 mm 5 mps 718 mmHg 81%
    19:00 +5°C° 0 mm 5 mps 718 mmHg 81%
    20:00 +5°C° 0 mm 5 mps 718 mmHg 82%
    21:00 +5°C° 0 mm 5 mps 718 mmHg 81%
    22:00 +5°C° 0 mm 5 mps 719 mmHg 81%
    23:00 +5°C° 0 mm 5 mps 719 mmHg 81%

    Tomorrow, 12 December, Tuesday

    Time Temperature Precipitation Wind Pressure Humidity
    00:00 +5°C° 0 mm 5 mps 719 mmHg 80%
    01:00 +5°C° 0 mm 5 mps 719 mmHg 79%
    02:00 +4°C° 0 mm 6 mps 719 mmHg 79%
    03:00 +5°C° 0 mm 6 mps 719 mmHg 78%
    04:00 +5°C° 0 mm 6 mps 719 mmHg 77%
    05:00 +5°C° 0 mm 7 mps 719 mmHg 76%
    06:00 +5°C° 0 mm 7 mps 719 mmHg 76%
    07:00 +5°C° 0 mm 6 mps 719 mmHg 77%
    08:00 +5°C° 0 mm 6 mps 720 mmHg 77%
    09:00 +7°C° 0 mm 6 mps 720 mmHg 75%
    10:00 +8°C° 0 mm 7 mps 720 mmHg 73%
    11:00 +9°C° 0 mm 7 mps 721 mmHg 71%
    12:00 +9°C° 0 mm 7 mps 721 mmHg 72%
    13:00 +9°C° 0 mm 7 mps 721 mmHg 72%
    14:00 +9°C° 0 mm 7 mps 721 mmHg 73%
    15:00 +9°C° 0 mm 6 mps 722 mmHg 75%
    16:00 +8°C° 0 mm 6 mps 722 mmHg 78%
    17:00 +8°C° 0 mm 5 mps 723 mmHg 80%
    18:00 +8°C° 0 mm 5 mps 723 mmHg 81%
    19:00 +7°C° 0 mm 4 mps 723 mmHg 82%
    20:00 +7°C° 0 mm 4 mps 724 mmHg 83%
    21:00 +7°C° 0 mm 4 mps 724 mmHg 83%
    22:00 +7°C° 0 mm 4 mps 724 mmHg 82%
    23:00 +7°C° 0 mm 4 mps 724 mmHg 82%

    Day after tomorrow, 13 December, Wednesday

    Time Temperature Precipitation Wind Pressure Humidity
    00:00 +6°C° 0.3 mm 4 mps 725 mmHg 84%
    01:00 +7°C° 0.3 mm 3 mps 725 mmHg 86%
    02:00 +5°C° 0.3 mm 3 mps 725 mmHg 88%
    03:00 +4°C° 0.7 mm 3 mps 725 mmHg 88%
    04:00 +3°C° 0.7 mm 3 mps 726 mmHg 89%
    05:00 +2°C° 0.7 mm 3 mps 726 mmHg 90%
    06:00 +2°C° 1.3 mm 3 mps 726 mmHg 91%
    07:00 +2°C° 1.3 mm 3 mps 726 mmHg 92%
    08:00 +2°C° 1.3 mm 2 mps 727 mmHg 93%
    09:00 +2°C° 1.2 mm 2 mps 727 mmHg 93%
    10:00 +2°C° 1.2 mm 2 mps 727 mmHg 94%
    11:00 +1°C° 1.2 mm 2 mps 728 mmHg 95%
    12:00 +3°C° 0.3 mm 1 mps 728 mmHg 94%
    13:00 +3°C° 0.3 mm 1 mps 727 mmHg 93%
    14:00 +3°C° 0.3 mm 1 mps 727 mmHg 92%
    15:00 +3°C° 0 mm 1 mps 727 mmHg 92%
    16:00 +2°C° 0 mm 1 mps 727 mmHg 93%
    17:00 +1°C° 0 mm 0 mps 727 mmHg 93%
    18:00 +1°C° 0 mm 1 mps 727 mmHg 93%
    19:00 +1°C° 0 mm 1 mps 726 mmHg 93%
    20:00 +1°C° 0 mm 1 mps 726 mmHg 93%
    21:00 +1°C° 0 mm 1 mps 726 mmHg 93%
    22:00 0°C° 0 mm 1 mps 726 mmHg 93%
    23:00 0°C° 0 mm 1 mps 726 mmHg 93%

    14 December, Thursday

    Time Temperature Precipitation Wind Pressure Humidity
    00:00 -2°C° 0 mm 2 mps 725 mmHg 93%
    01:00 -2°C° 0 mm 2 mps 725 mmHg 93%
    02:00 -2°C° 0 mm 2 mps 725 mmHg 93%
    03:00 -2°C° 0 mm 2 mps 724 mmHg 92%
    04:00 -2°C° 0 mm 2 mps 724 mmHg 91%
    05:00 -2°C° 0 mm 2 mps 723 mmHg 90%
    06:00 -2°C° 0 mm 3 mps 723 mmHg 89%
    07:00 -2°C° 0 mm 3 mps 723 mmHg 88%
    08:00 -2°C° 0 mm 3 mps 723 mmHg 87%
    09:00 -1°C° 0 mm 3 mps 723 mmHg 84%
    10:00 -1°C° 0 mm 4 mps 722 mmHg 82%
    11:00 +1°C° 0 mm 4 mps 722 mmHg 80%
    12:00 +1°C° 0 mm 4 mps 722 mmHg 79%
    13:00 +3°C° 0 mm 4 mps 721 mmHg 78%
    14:00 +2°C° 0 mm 5 mps 721 mmHg 77%
    15:00 +3°C° 0 mm 4 mps 721 mmHg 78%
    16:00 +1°C° 0 mm 4 mps 720 mmHg 80%
    17:00 +1°C° 0 mm 4 mps 720 mmHg 81%
    18:00 +1°C° 0.1 mm 4 mps 720 mmHg 81%
    19:00 +1°C° 0.1 mm 4 mps 719 mmHg 81%
    20:00 +1°C° 0.1 mm 4 mps 719 mmHg 81%
    21:00 +1°C° 0.3 mm 4 mps 719 mmHg 82%
    22:00 +1°C° 0.3 mm 4 mps 718 mmHg 83%
    23:00 +1°C° 0.3 mm 4 mps 718 mmHg 83%

    15 December, Friday

    Time Temperature Precipitation Wind Pressure Humidity
    00:00 +1°C° 0.1 mm 4 mps 717 mmHg 83%
    01:00 +1°C° 0.1 mm 5 mps 717 mmHg 83%
    02:00 +1°C° 0.1 mm 5 mps 716 mmHg 83%
    03:00 +2°C° 0.2 mm 5 mps 716 mmHg 83%
    04:00 +2°C° 0.2 mm 5 mps 716 mmHg 84%
    05:00 +3°C° 0.2 mm 4 mps 715 mmHg 84%
    06:00 +2°C° 0.1 mm 5 mps 716 mmHg 84%
    07:00 +3°C° 0.1 mm 5 mps 716 mmHg 83%
    08:00 +3°C° 0.1 mm 5 mps 716 mmHg 83%
    09:00 +4°C° 0.1 mm 6 mps 717 mmHg 82%
    10:00 +4°C° 0.1 mm 6 mps 717 mmHg 81%
    11:00 +4°C° 0.1 mm 6 mps 718 mmHg 81%
    12:00 +5°C° 0.4 mm 5 mps 717 mmHg 82%
    13:00 +5°C° 0.4 mm 3 mps 717 mmHg 83%
    14:00 +6°C° 0.4 mm 2 mps 717 mmHg 85%
    15:00 +5°C° 1.1 mm 2 mps 717 mmHg 88%
    16:00 +6°C° 1.1 mm 1 mps 717 mmHg 90%
    17:00 +5°C° 1.1 mm 1 mps 716 mmHg 93%
    18:00 +5°C° 1.6 mm 1 mps 716 mmHg 94%
    19:00 +5°C° 1.6 mm 1 mps 716 mmHg 96%
    20:00 +4°C° 1.6 mm 1 mps 715 mmHg 97%
    21:00 +4°C° 1 mm 1 mps 714 mmHg 97%
    22:00 +4°C° 1 mm 1 mps 714 mmHg 97%
    23:00 +4°C° 1 mm 1 mps 713 mmHg 97%

    16 December, Saturday

    Time Temperature Precipitation Wind Pressure Humidity
    00:00 +4°C° 0.8 mm 1 mps 712 mmHg 97%
    01:00 +4°C° 0.8 mm 1 mps 712 mmHg 97%
    02:00 +4°C° 0.8 mm 1 mps 711 mmHg 97%
    03:00 +4°C° 0.6 mm 2 mps 711 mmHg 95%
    04:00 +3°C° 0.6 mm 3 mps 711 mmHg 94%
    05:00 +3°C° 0.6 mm 3 mps 711 mmHg 93%
    06:00 +1°C° 0.5 mm 4 mps 712 mmHg 92%
    07:00 +1°C° 0.5 mm 4 mps 713 mmHg 91%
    08:00 0°C° 0.5 mm 5 mps 714 mmHg 89%
    09:00 0°C° 0.3 mm 5 mps 715 mmHg 88%
    10:00 0°C° 0.3 mm 4 mps 717 mmHg 87%
    11:00 0°C° 0.3 mm 4 mps 718 mmHg 86%
    12:00 0°C° 0 mm 4 mps 718 mmHg 83%
    13:00 +1°C° 0 mm 4 mps 719 mmHg 81%
    14:00 +1°C° 0 mm 4 mps 720 mmHg 78%
    15:00 +1°C° 0 mm 3 mps 720 mmHg 81%
    16:00 +1°C° 0 mm 3 mps 721 mmHg 84%
    17:00 +1°C° 0 mm 2 mps 722 mmHg 86%
    18:00 +1°C° 0 mm 2 mps 722 mmHg 87%
    19:00 -1°C° 0 mm 2 mps 723 mmHg 87%
    20:00 -1°C° 0 mm 2 mps 723 mmHg 88%
    21:00 -1°C° 0 mm 2 mps 724 mmHg 88%
    22:00 -1°C° 0 mm 2 mps 724 mmHg 88%
    23:00 -2°C° 0 mm 2 mps 725 mmHg 88%
    Show more